TimeMST,TemperatureF,Dew PointF,Humidity,Sea Level PressureIn,VisibilityMPH,Wind Direction,Wind SpeedMPH,Gust SpeedMPH,PrecipitationIn,Events,Conditions,WindDirDegrees,DateUTC
12:15 AM,39.2,15.8,39,29.88,10.0,South,19.6,25.3,N/A,,Overcast,170,2012-12-22 07:15:00
12:35 AM,39.2,15.8,39,29.87,10.0,South,24.2,31.1,N/A,,Overcast,170,2012-12-22 07:35:00
12:55 AM,39.2,15.8,39,29.87,10.0,SSE,21.9,27.6,N/A,,Overcast,160,2012-12-22 07:55:00
1:15 AM,39.2,15.8,39,29.87,10.0,SSE,20.7,26.5,N/A,,Overcast,160,2012-12-22 08:15:00
1:35 AM,37.4,15.8,41,29.87,10.0,SSE,18.4,26.5,N/A,,Overcast,160,2012-12-22 08:35:00
1:55 AM,37.4,14.0,38,29.87,10.0,South,19.6,-,N/A,,Overcast,170,2012-12-22 08:55:00
2:15 AM,37.4,14.0,38,29.86,10.0,SSE,17.3,26.5,N/A,,Overcast,160,2012-12-22 09:15:00
2:35 AM,35.6,14.0,41,29.87,10.0,SSE,17.3,21.9,N/A,,Mostly Cloudy,160,2012-12-22 09:35:00
2:55 AM,35.6,14.0,41,29.86,10.0,SSE,17.3,-,N/A,,Partly Cloudy,160,2012-12-22 09:55:00
3:15 AM,35.6,14.0,41,29.87,10.0,SSE,16.1,-,N/A,,Scattered Clouds,160,2012-12-22 10:15:00
3:35 AM,35.6,14.0,41,29.86,10.0,SSE,15.0,-,N/A,,Partly Cloudy,160,2012-12-22 10:35:00
3:55 AM,35.6,14.0,41,29.84,10.0,SSE,16.1,-,N/A,,Clear,160,2012-12-22 10:55:00
4:15 AM,35.6,12.2,38,29.84,10.0,South,15.0,20.7,N/A,,Scattered Clouds,170,2012-12-22 11:15:00
4:35 AM,35.6,14.0,41,29.83,10.0,SSE,18.4,24.2,N/A,,Overcast,160,2012-12-22 11:35:00
5:15 AM,37.4,12.2,36,29.81,10.0,SSE,19.6,26.5,N/A,,Overcast,160,2012-12-22 12:15:00
5:35 AM,37.4,12.2,36,29.80,10.0,SSE,21.9,27.6,N/A,,Mostly Cloudy,160,2012-12-22 12:35:00
5:55 AM,37.4,12.2,36,29.80,10.0,SSE,23.0,26.5,N/A,,Overcast,160,2012-12-22 12:55:00
6:15 AM,37.4,12.2,36,29.80,10.0,SSE,21.9,27.6,N/A,,Overcast,160,2012-12-22 13:15:00
6:35 AM,37.4,12.2,36,29.79,10.0,SSE,19.6,26.5,N/A,,Overcast,160,2012-12-22 13:35:00
6:55 AM,37.4,12.2,36,29.78,10.0,SSE,23.0,-,N/A,,Scattered Clouds,160,2012-12-22 13:55:00
7:15 AM,37.4,12.2,36,29.78,10.0,SSE,20.7,27.6,N/A,,Clear,160,2012-12-22 14:15:00
7:35 AM,37.4,12.2,36,29.78,10.0,SSE,24.2,31.1,N/A,,Clear,160,2012-12-22 14:35:00
7:55 AM,37.4,12.2,36,29.78,10.0,South,23.0,29.9,N/A,,Clear,170,2012-12-22 14:55:00
8:15 AM,37.4,12.2,36,29.77,10.0,SSE,24.2,32.2,N/A,,Clear,160,2012-12-22 15:15:00
8:35 AM,37.4,12.2,36,29.77,10.0,SSE,26.5,32.2,N/A,,Partly Cloudy,160,2012-12-22 15:35:00
8:55 AM,37.4,12.2,36,29.77,10.0,SSE,20.7,-,N/A,,Clear,160,2012-12-22 15:55:00
9:15 AM,37.4,12.2,36,29.77,10.0,South,19.6,23.0,N/A,,Clear,170,2012-12-22 16:15:00
9:35 AM,37.4,12.2,36,29.77,10.0,SSE,21.9,27.6,N/A,,Clear,160,2012-12-22 16:35:00
10:15 AM,37.4,12.2,36,29.76,10.0,SSE,24.2,28.8,N/A,,Clear,160,2012-12-22 17:15:00
10:35 AM,39.2,14.0,36,29.75,10.0,SSE,19.6,33.4,N/A,,Partly Cloudy,160,2012-12-22 17:35:00
10:55 AM,41.0,14.0,33,29.74,10.0,SSE,21.9,27.6,N/A,,Scattered Clouds,150,2012-12-22 17:55:00
11:15 AM,44.6,14.0,29,29.76,10.0,SSE,23.0,-,N/A,,Scattered Clouds,160,2012-12-22 18:15:00
11:35 AM,44.6,14.0,29,29.74,10.0,SSE,23.0,29.9,N/A,,Overcast,150,2012-12-22 18:35:00
11:55 AM,46.4,15.8,29,29.73,10.0,SSE,20.7,29.9,N/A,,Overcast,150,2012-12-22 18:55:00
12:15 PM,48.2,15.8,27,29.72,10.0,SSE,19.6,27.6,N/A,,Mostly Cloudy,150,2012-12-22 19:15:00
12:35 PM,48.2,15.8,27,29.72,10.0,SSE,19.6,28.8,N/A,,Overcast,150,2012-12-22 19:35:00
12:55 PM,48.2,19.4,32,29.72,10.0,SSE,15.0,24.2,N/A,,Overcast,160,2012-12-22 19:55:00
1:15 PM,48.2,19.4,32,29.71,10.0,SSE,16.1,25.3,N/A,,Overcast,160,2012-12-22 20:15:00
1:35 PM,46.4,17.6,32,29.72,10.0,South,17.3,23.0,N/A,,Overcast,170,2012-12-22 20:35:00
1:55 PM,46.4,15.8,29,29.73,10.0,South,16.1,-,N/A,,Overcast,180,2012-12-22 20:55:00
2:15 PM,44.6,15.8,31,29.74,10.0,South,13.8,-,N/A,,Overcast,190,2012-12-22 21:15:00
2:35 PM,44.6,15.8,31,29.74,10.0,South,16.1,-,N/A,,Overcast,180,2012-12-22 21:35:00
2:55 PM,46.4,15.8,29,29.73,10.0,SSE,15.0,19.6,N/A,,Overcast,160,2012-12-22 21:55:00
3:35 PM,46.4,15.8,29,29.73,10.0,SSE,16.1,-,N/A,,Mostly Cloudy,160,2012-12-22 22:35:00
3:55 PM,46.4,15.8,29,29.73,10.0,South,12.7,-,N/A,,Scattered Clouds,170,2012-12-22 22:55:00
4:15 PM,46.4,15.8,29,29.74,10.0,SSE,13.8,17.3,N/A,,Mostly Cloudy,160,2012-12-22 23:15:00
4:35 PM,46.4,17.6,32,29.77,10.0,WSW,21.9,26.5,N/A,,Overcast,250,2012-12-22 23:35:00
4:55 PM,39.2,30.2,70,29.79,10.0,West,15.0,-,N/A,,Overcast,270,2012-12-22 23:55:00
5:15 PM,39.2,30.2,70,29.79,10.0,WNW,6.9,-,0.01,,Mostly Cloudy,290,2012-12-23 00:15:00
5:55 PM,37.4,28.4,70,29.80,10.0,ENE,4.6,-,0.01,,Scattered Clouds,70,2012-12-23 00:55:00
6:15 PM,35.6,28.4,75,29.80,10.0,East,4.6,-,N/A,,Partly Cloudy,80,2012-12-23 01:15:00
6:35 PM,33.8,26.6,75,29.82,10.0,ENE,5.8,-,N/A,,Partly Cloudy,60,2012-12-23 01:35:00
6:55 PM,33.8,26.6,75,29.82,10.0,ENE,9.2,-,N/A,,Clear,70,2012-12-23 01:55:00
7:15 PM,33.8,26.6,75,29.84,10.0,East,5.8,-,N/A,,Scattered Clouds,100,2012-12-23 02:15:00
7:35 PM,33.8,26.6,75,29.84,10.0,SE,10.4,-,N/A,,Partly Cloudy,130,2012-12-23 02:35:00
7:55 PM,33.8,26.6,75,29.86,10.0,East,5.8,-,N/A,,Clear,80,2012-12-23 02:55:00
8:15 PM,33.8,26.6,75,29.86,10.0,South,6.9,-,N/A,,Clear,170,2012-12-23 03:15:00
8:35 PM,33.8,26.6,75,29.86,10.0,SE,8.1,-,N/A,,Clear,140,2012-12-23 03:35:00
8:55 PM,32.0,24.8,75,29.87,10.0,Calm,Calm,-,N/A,,Clear,0,2012-12-23 03:55:00
9:15 PM,32.0,26.6,80,29.88,10.0,South,4.6,-,N/A,,Clear,180,2012-12-23 04:15:00
9:35 PM,32.0,26.6,80,29.89,10.0,South,5.8,-,N/A,,Clear,190,2012-12-23 04:35:00
9:55 PM,30.2,24.8,80,29.89,10.0,Calm,Calm,-,N/A,,Clear,0,2012-12-23 04:55:00
10:15 PM,30.2,24.8,80,29.90,10.0,NE,4.6,-,N/A,,Clear,40,2012-12-23 05:15:00
10:35 PM,28.4,21.2,74,29.91,10.0,SSE,5.8,-,N/A,,Clear,150,2012-12-23 05:35:00
10:55 PM,30.2,24.8,80,29.91,10.0,SE,4.6,-,N/A,,Clear,140,2012-12-23 05:55:00
11:15 PM,32.0,24.8,75,29.92,10.0,East,4.6,-,N/A,,Clear,90,2012-12-23 06:15:00
11:35 PM,30.2,21.2,69,29.92,10.0,SE,3.5,-,N/A,,Clear,130,2012-12-23 06:35:00
11:55 PM,30.2,21.2,69,29.93,10.0,East,6.9,-,N/A,,Clear,100,2012-12-23 06:55:00